Dewpoint
63 63 63 63 63 63 63 62 61 61 60 59 58 57 57 56 57 56 56 57 56 55 56 56 55 55 55 53 53 52 51 50 53 52 52 54 54 53 53 52 53 53 54 53 53 53 54 56 54 54 50 48
62 62 63 63 63 63 63 62 62 61 60 58 58 58 57 57 57 57 56 56 55 55 55 55 53 54 54 53 53 52 50 49 51 51 50 50 51 52 52 52 52 52 52 52 51 51 53 55 53 53 51 45
62 61 62 61 62 62 62 62 61 60 59 59 58 57 57 56 56 56 56 56 55 54 53 55 54 53 53 52 52 52 52 50 50 49 49 49 50 50 50 50 51 51 50 49 49 50 52 53 51 52 48 45
60 60 61 61 60 60 60 60 60 59 59 58 57 56 55 55 54 55 54 55 53 54 55 54 53 53 53 52 52 51 51 50 49 49 49 49 49 49 48 48 48 48 48 46 47 49 50 50 49 44 46 46
61 61 59 60 59 59 59 59 58 58 58 57 56 55 54 54 53 52 52 52 51 55 52 53 53 52 52 51 52 51 50 50 50 49 49 48 46 42 40 42 43 43 44 43 44 47 50 48 41 42 45 46
60 60 59 60 60 59 58 58 57 57 57 54 54 54 54 53 51 50 50 50 52 50 51 52 53 52 53 51 50 50 50 49 50 49 49 46 43 41 39 40 32 33 43 41 42 47 47 37 37 39 43 46
60 60 60 59 59 59 57 56 55 56 54 53 53 52 51 50 49 49 49 49 50 49 51 51 53 53 53 51 51 50 49 50 49 49 48 41 38 37 37 34 35 33 31 31 41 41 36 34 35 38 41 45
59 59 59 59 59 58 57 55 54 54 53 52 51 50 50 50 49 48 47 49 48 48 49 51 51 52 51 51 51 50 50 50 48 49 45 37 35 46 40 31 31 31 29 27 29 30 31 31 33 36 40 43
59 59 59 58 58 57 56 54 53 53 52 51 50 50 49 49 48 48 47 47 47 46 47 48 48 49 48 48 48 48 46 47 48 44 40 37 35 32 32 28 26 26 25 28 29 29 30 31 32 36 39 41
58 59 58 57 56 56 55 55 54 53 52 51 51 50 49 48 47 47 46 46 46 46 46 46 46 46 46 46 46 45 44 43 41 38 33 31 31 30 30 30 30 31 30 28 29 29 31 31 32 35 38 40
58 59 58 57 56 55 55 54 54 53 53 52 51 50 49 49 48 47 46 45 45 45 46 45 45 45 45 45 44 43 42 41 38 33 29 28 30 28 26 27 29 30 31 31 30 30 31 31 32 35 38 40
56 57 57 56 55 55 54 54 53 53 53 52 52 51 51 50 48 46 45 45 45 45 45 45 44 44 44 43 43 42 40 37 32 26 25 28 27 26 26 25 26 26 26 29 30 31 30 33 33 34 38 39
56 55 56 55 55 55 54 54 53 53 52 52 52 51 50 50 49 46 45 44 44 44 44 44 43 43 43 42 42 41 38 33 26 23 25 25 23 23 23 24 24 26 25 27 28 28 29 31 32 35 37 38
55 56 56 55 55 55 53 54 53 53 52 52 52 51 50 50 50 48 45 44 44 44 44 44 43 43 42 42 41 39 35 29 24 22 23 22 22 21 21 21 24 23 24 26 27 28 27 28 30 34 35 36
55 55 55 54 55 54 54 54 53 52 52 52 52 51 50 50 49 49 47 44 43 43 43 43 43 42 42 41 39 37 33 27 22 22 21 21 21 21 20 21 24 22 23 24 26 29 26 25 29 31 34 36
55 55 55 54 54 54 54 53 53 52 52 51 51 51 50 49 49 48 48 45 44 43 43 43 43 42 42 41 38 35 31 25 22 22 21 21 21 21 20 21 22 22 21 21 23 26 23 26 26 30 33 34
55 55 55 54 54 54 53 52 52 52 52 51 51 51 50 49 49 48 46 45 43 43 42 43 43 42 42 41 36 33 29 25 22 22 22 22 23 21 20 19 21 26 21 20 22 21 21 22 23 29 31 33
55 55 55 54 54 53 52 52 52 51 51 51 50 50 49 48 48 47 46 45 44 43 42 42 42 42 41 40 34 32 27 23 22 21 21 22 19 23 18 17 20 19 19 21 22 20 23 22 21 25 29 31
54 54 54 53 54 54 53 52 52 51 51 51 50 49 49 48 47 46 45 44 43 42 42 41 41 41 40 36 32 29 26 22 21 20 20 21 18 21 17 17 21 18 18 19 19 19 22 18 20 23 26 31
54 54 54 53 52 53 53 52 51 51 51 51 50 49 49 48 47 46 45 44 43 42 41 41 40 40 38 34 30 28 25 22 21 20 22 20 19 18 17 18 18 19 17 17 18 19 19 19 23 19 25 28
51 52 53 52 52 52 52 51 51 49 49 49 48 48 49 48 48 47 45 45 45 45 42 40 39 39 37 33 28 26 24 22 23 22 23 19 19 16 17 16 15 18 17 17 18 17 17 19 21 18 22 26
46 50 52 50 51 49 50 51 51 50 49 48 48 47 48 48 47 47 46 46 46 46 45 44 41 38 35 32 28 26 23 21 22 22 21 19 20 17 17 15 14 16 17 20 20 16 16 19 18 18 20 23
43 45 46 49 51 49 50 49 49 49 49 49 49 48 48 47 47 46 46 46 46 45 45 44 43 37 33 31 28 26 22 21 22 23 21 19 19 19 17 15 14 15 18 21 21 18 16 17 14 18 19 23
36 41 43 44 46 48 48 47 48 48 48 48 48 47 47 47 47 46 45 45 45 45 44 43 43 41 38 29 28 26 22 20 21 22 20 18 18 17 20 18 15 16 18 18 17 19 18 16 14 17 22 19
30 35 40 42 43 43 46 47 46 45 45 47 48 47 47 46 47 46 45 45 45 44 43 43 42 41 39 35 27 26 23 20 20 21 19 19 20 16 18 18 17 18 17 15 16 18 16 16 17 21 21 16
26 29 36 41 42 42 44 45 46 46 46 45 44 44 45 45 45 45 44 44 44 44 43 42 41 40 39 38 31 26 24 20 23 22 20 19 19 18 17 17 17 19 14 12 10 9 11 13 15 20 18 15
24 26 29 34 38 39 41 42 42 45 46 45 44 44 44 45 45 44 44 43 42 42 42 41 41 38 39 38 36 33 26 22 20 21 19 18 17 18 17 18 20 17 12 10 12 12 10 7 6 12 15 15
23 25 26 28 31 34 38 39 39 39 41 42 44 44 44 43 43 43 43 42 42 42 42 41 41 40 39 38 36 35 30 25 20 21 20 18 18 17 14 16 18 17 14 12 9 10 6 10 5 5 7 7
23 24 24 25 26 28 31 32 36 36 36 38 40 41 43 43 43 42 43 43 42 42 42 41 41 40 39 38 37 36 34 34 33 23 21 19 18 16 14 14 16 18 14 13 9 10 6 8 7 10 4 7
21 22 23 23 23 23 26 27 31 32 35 36 37 39 41 43 42 42 42 42 42 41 41 41 41 39 39 37 36 36 35 35 34 31 24 21 18 17 15 14 15 15 17 13 13 11 6 9 12 8 6 5
18 20 22 22 22 22 22 23 25 28 33 36 37 38 39 40 42 42 42 41 41 41 41 41 40 39 38 37 36 36 35 34 33 34 32 28 20 18 19 16 14 15 14 14 14 15 11 21 20 6 8 6